Location: Bailleul
(50.3375°N, 2.8513°E)
Time: 21:18:21
(UTC+00:00)

Cosmos 44 Rocket - Pass Details

Date: 19 April 2021
Orbit: 636 x 754 km, 65.1° (Epoch: 18 May)

Event Time Altitude Azimuth Distance (km) Brightness Sun altitude
Exits shadow 23:16:00 29° 269° (W) 1,331 4.7 -27.8°
Maximum altitude 23:18:06 44° 321° (NW) 1,029 4.4 -27.8°
Drops below altitude 10° 23:23:06 10° 33° (NNE) 2,283 6.5 -27.9°
Sets 23:25:38 0° 40° (NE) 3,215 7.3 -28.0°
